IRIDIUM 33 DEB

Satellite information

Favourite Embed

Satellite Type and Status

DEBRISIN ORBIT

Key statistics

Satellite IRIDIUM 33 DEB at a glance.

Uptime

10158

Days in orbit

Revolutions

≈ 14.3

Per day

Orbit

LEO

Low Earth Orbit

Inclination

86.3

Latest

Satellite identification and parameters

Extended collection of information and parameters for IRIDIUM 33 DEB.

Object identification

Identified? True

Debris? True

Object name: IRIDIUM 33 DEB

International designator: 1997-051GN

Object number (NORAD): 34497

Object ID (CCSDS): 34497

Country: UNITED STATES OF AMERICA (US)

Current information (Y/N): Y

RCS size: SMALL

Orbital parameters

Period: 100.93 minutes

Inclination: 86.2799 deg

SMA: 7180.817 km

Apoapsis: 862.121 km

Periapsis: 743.242 km

RAAN: 120.4839 deg

Eccentricy: 0.0082776

Argument of periapsis: 130.4631 deg

Mean anomaly: 21.6241 deg

Mean motion: 14.26730724 rev/day

Mean motion (dot): 0.00001199 rev/day2

B* drag term: 0.00047009 1/REarth

Two-line elements (TLE)

Creation date: July 6, 2025, 6:05 p.m.

Reference frame: TEME

Reference center: EARTH

Epoch: July 6, 2025, 6:55 a.m. UTC

TLE line 0: 0 IRIDIUM 33 DEB

TLE line 1: 1 34497U 97051GN 25187.28823722 .00001199 00000-0 47009-3 0 9999

TLE line 2: 2 34497 86.2799 120.4839 0082776 130.4631 21.6241 14.26730724846094

Live tracking on map

Real-time ground track for satellite IRIDIUM 33 DEB.

In-orbit conjunctions

A list of the most updated potential collisions computed for object IRIDIUM 33 DEB.

Target Orbit TCA Probability of collision Miss distance Type
CZ-6A DEB LEO 2025-06-25 08:46:02 0.0001208076 161.0 (m) DEBRIS
FENGYUN 1C DEB SSO 2025-04-04 00:18:08 0.0001398389 166.0 (m) DEBRIS
CZ-6A DEB LEO 2025-02-26 22:17:54 0.000114899 664.0 (m) DEBRIS
TRANSIT 11 DEB SSO 2024-07-28 05:39:17 0.0001011721 247.0 (m) DEBRIS

Associated space launch

Iridium provides global mobile telecommunications services using a constellation of 66 low earth orbit satellites in a 86.4° inclined orbit. Although 77 satellites were originally envisioned for the system and spawned the name based on the 77th element in the periodic table, the system has been scaled back. Motorola's Satellite Communications Group designed and manufactured the Iridium satellites with Lockheed Martin providing the LM-700A spacecraft buses.

IRIDIUM 33 DEB was lifted into orbit during the mission ‘Proton-K/17S40 | Iridium 27 to 33’, on board a Proton-K/17S40 space rocket.

The launch took place on Sept. 14, 1997, 1:36 a.m. from 81/23 (81L).

For more information about the launch, click the button.

Launch to space Proton-K/17S40 | Iridium 27 to 33
Proton-K/17S40 | Iridium 27 to 33

Agency: N/A

Status: Launch Successful

Launch date: Sept. 14, 1997, 1:36 a.m. UTC

Rocket: Proton-K/17S40

Launch pad: 81/23 (81L)

Location: Baikonur Cosmodrome, Republic of Kazakhstan

...

Latest news about this satellite

There are no fresh news available about this satellite. Check back as we update our databases every day.


Newsletter sign-up

Weekly statistics, charts and insights to help you stay on top of the space industry.